Location: Albany
(35.0170°S, 117.8920°E)
Time: 16:52:51
(UTC+08:00)

Transit 2A - Pass Details

Date: 23 January 2021
Orbit: 601 x 958 km, 66.7° (Epoch: 02 March)

Event Time Altitude Azimuth Distance (km) Brightness Sun altitude
Rises 00:29:06 0° 197° (SSW) 3,530 10.3 -35.4°
Reaches altitude 10° 00:31:54 10° 186° (S) 2,628 9.5 -35.4°
Maximum altitude 00:37:18 30° 126° (SE) 1,625 7.9 -35.3°
Enters shadow 00:38:01 30° 113° (ESE) 1,651 7.8 -35.3°
Drops below altitude 10° 00:42:49 10° 65° (ENE) 2,693 - -35.2°
Sets 00:45:42 0° 55° (NE) 3,630 - -35.1°
